EW7554 Weather Reports


time (UTC)temp
C
wind
direction
speed
KPH
gust
KPH
rain 1hr
cm
rain 24hr
cm
rain mn
cm
humidity
%
barometer
mb
20260508141557 12 217 1.6 12.9 0.00 0.00 0.00 42 1008.6
20260508140104 11 198 4.8 14.5 0.00 0.00 0.00 41 1008.7
20260508134600 11 203 9.7 16.1 0.00 0.00 0.00 39 1008.8
20260508133051 11 196 9.7 20.9 0.00 0.00 0.00 39 1008.8
20260508131547 11 192 8.0 20.9 0.00 0.00 0.00 41 1009.0
20260508130044 10 200 9.7 17.7 0.00 0.00 0.00 41 1008.9
20260508124540 8 198 8.0 16.1 0.00 0.00 0.00 43 1009.0
20260508123037 8 215 4.8 12.9 0.00 0.00 0.00 45 1009.0
20260508121537 7 212 4.8 8.0 0.00 0.00 0.00 47 1009.1
20260508120038 7 207 3.2 11.3 0.00 0.00 0.00 48 1008.9
20260508114527 6 196 4.8 9.7 0.00 0.00 0.00 48 1008.9
20260508113022 6 217 4.8 9.7 0.00 0.00 0.00 48 1008.9
20260508111527 6 200 6.4 11.3 0.00 0.00 0.00 48 1009.0
20260508110020 6 199 4.8 11.3 0.00 0.00 0.00 48 1008.9
20260508104514 6 209 4.8 8.0 0.00 0.00 0.00 48 1008.9
20260508103022 6 207 4.8 8.0 0.00 0.00 0.00 48 1008.9
20260508101511 6 217 4.8 9.7 0.00 0.00 0.00 48 1009.0
20260508100009 6 206 3.2 8.0 0.00 0.00 0.00 48 1009.1
20260508094507 6 224 4.8 9.7 0.00 0.00 0.00 47 1009.1
20260508093004 7 228 3.2 8.0 0.00 0.00 0.00 46 1009.2
20260508091503 7 215 4.8 9.7 0.00 0.00 0.00 45 1009.2
20260508090004 7 209 4.8 9.7 0.00 0.00 0.00 46 1009.3
20260508084501 7 202 4.8 9.7 0.00 0.00 0.00 47 1009.2
20260508083109 7 204 6.4 9.7 0.00 0.00 0.00 47 1009.2
20260508081605 7 208 3.2 8.0 0.00 0.00 0.00 47 1009.3
20260508074603 7 202 3.2 8.0 0.00 0.00 0.00 47 1009.6
20260508073053 7 202 3.2 8.0 0.00 0.00 0.00 48 1009.6
20260508071550 7 197 4.8 8.0 0.00 0.00 0.00 48 1009.7
20260508070048 7 190 3.2 6.4 0.00 0.00 0.00 49 1009.8
20260508064546 7 188 3.2 6.4 0.00 0.00 0.00 48 1009.8